Location: Shenandoah County Park
(38.9356°N, 78.4524°W)
Time: 18:07:26
(UTC-05:00)

A-11 Canister half - Pass Details

Date: 11 December 2023
Orbit: 1526 x 1682 km, 47.3° (Epoch: 01 March)

Event Time Altitude Azimuth Distance (km) Brightness Sun altitude
Rises 16:45:36 0° 224° (SW) 4,876 13.5 0.2°
Reaches altitude 10° 16:48:44 10° 222° (SW) 3,905 12.7 -0.3°
Maximum altitude 16:58:41 68° 142° (SE) 1,783 9.4 -2.0°
Drops below altitude 10° 17:08:44 10° 62° (ENE) 3,940 10.5 -3.7°
Enters shadow 17:10:27 - 61° (ENE) 4,470 10.7 -4.0°
Sets 17:11:54 0° 60° (ENE) 4,922 - -4.3°
